UAE48 EDDF-OMDB

Flight info

Callsign UAE48
Flight time N/A
Altitude 37000
Route CINDY8S/18 CINDY Z74 LAMPU DCT NOMBO Y161 MAH DCT VAVOR DCT RADIZ/N0487F390 DCT NIPEL DCT ELTIB DCT GLOMY DCT LMO DCT RIKSO DCT YOYYO/N0482F410 UG80 BANRO DCT VANZA DCT LAKTO L560 SILKA M872 BDB Y214 RAPMA DCT KUVSO DCT KATIT DCT PEKEM M628 RIGIL G783 ELUDA/N0506F350 G783 ASPED Q308 KIPOK Q568 IMPED
Aircraft A359/H-SDE2E3GHIJ3J4J5LM1ORWXY/LB1D1

Departure

Time N/A
Airport Frankfurt Main Airport (EDDF)

Arrival

Time 2026-05-07 17:08
Airport Dubai International Airport (OMDB)
Time Latitude Longitude Altitude Speed Heading
2026-05-07 16:25 23.75825 48.55630 40837 ft 523 kts 98°
2026-05-07 16:25 23.73040 48.87223 40830 ft 523 kts 99°
2026-05-07 16:26 23.70197 49.18751 40824 ft 518 kts 99°
2026-05-07 16:26 23.67312 49.49986 40817 ft 516 kts 99°
2026-05-07 16:27 23.64375 49.81124 40814 ft 516 kts 99°
2026-05-07 16:27 23.61399 50.12006 40813 ft 516 kts 99°
2026-05-07 16:28 23.58343 50.43067 40812 ft 515 kts 99°
2026-05-07 16:28 23.55228 50.74089 40805 ft 514 kts 99°
2026-05-07 16:29 23.52052 51.05092 40799 ft 514 kts 99°
2026-05-07 16:29 23.48847 51.35762 40782 ft 513 kts 99°
2026-05-07 16:30 23.45547 51.66762 40790 ft 516 kts 99°
2026-05-07 16:30 23.42180 51.97791 40798 ft 515 kts 99°
2026-05-07 16:31 23.38755 52.28768 40791 ft 515 kts 99°
2026-05-07 16:31 23.35282 52.59621 40791 ft 514 kts 99°
2026-05-07 16:32 23.31779 52.90195 40791 ft 513 kts 99°
2026-05-07 16:32 23.28188 53.20992 40793 ft 512 kts 99°
2026-05-07 16:33 23.24551 53.51661 40790 ft 511 kts 99°
2026-05-07 16:33 23.20875 53.82141 40798 ft 509 kts 99°
2026-05-07 16:34 23.17121 54.12760 40799 ft 509 kts 99°
2026-05-07 16:34 23.13348 54.43038 40811 ft 509 kts 99°
2026-05-07 16:35 23.10955 54.61999 40800 ft 509 kts 99°
2026-05-07 16:35 23.09989 54.69605 40806 ft 509 kts 99°
2026-05-07 16:36 23.09018 54.77217 40806 ft 509 kts 99°
2026-05-07 16:36 23.08043 54.84833 40796 ft 509 kts 99°
2026-05-07 16:37 23.07072 54.92386 40813 ft 509 kts 99°
2026-05-07 16:37 23.06090 54.99990 40815 ft 509 kts 99°
2026-05-07 16:38 23.05104 55.07604 40812 ft 509 kts 99°
2026-05-07 16:38 23.04534 55.15250 40814 ft 510 kts 88°
2026-05-07 16:39 23.04922 55.22891 40804 ft 510 kts 91°
2026-05-07 16:39 23.05510 55.30514 40831 ft 511 kts 71°
2026-05-07 16:39 23.07023 55.33997 40827 ft 509 kts 56°
2026-05-07 16:40 23.09284 55.36931 40832 ft 507 kts 40°
2026-05-07 16:40 23.12143 55.39135 40832 ft 504 kts 25°
2026-05-07 16:40 23.15399 55.40463 40835 ft 499 kts
2026-05-07 16:40 23.18821 55.40830 40836 ft 493 kts 354°
2026-05-07 16:41 23.22170 55.40225 40832 ft 486 kts 339°
2026-05-07 16:41 23.28243 55.37201 40831 ft 483 kts 329°
2026-05-07 16:42 23.34658 55.34910 40827 ft 493 kts 351°
2026-05-07 16:42 23.38091 55.34847 40825 ft 497 kts
2026-05-07 16:42 23.41542 55.35348 40654 ft 501 kts
2026-05-07 16:42 23.44943 55.36202 40427 ft 503 kts 12°
2026-05-07 16:43 23.48319 55.37235 40187 ft 505 kts 14°
2026-05-07 16:43 23.51690 55.38330 39947 ft 505 kts 14°
2026-05-07 16:43 23.55065 55.39428 39714 ft 506 kts 14°
2026-05-07 16:43 23.58397 55.40482 39487 ft 506 kts 13°
2026-05-07 16:44 23.61791 55.41524 39261 ft 507 kts 13°
2026-05-07 16:44 23.65177 55.42541 39036 ft 507 kts 12°
2026-05-07 16:44 23.68595 55.43555 38811 ft 508 kts 12°
2026-05-07 16:44 23.72003 55.44562 38589 ft 508 kts 12°
2026-05-07 16:45 23.75422 55.45571 38331 ft 509 kts 12°
2026-05-07 16:45 23.78840 55.46582 38077 ft 509 kts 12°
2026-05-07 16:45 23.82258 55.47596 37830 ft 510 kts 12°
2026-05-07 16:45 23.85683 55.48613 37560 ft 510 kts 12°
2026-05-07 16:46 23.89049 55.49615 37019 ft 507 kts 12°
2026-05-07 16:46 23.92438 55.50624 36332 ft 500 kts 12°
2026-05-07 16:46 23.95734 55.51607 35641 ft 485 kts 12°
2026-05-07 16:46 23.98946 55.52731 34920 ft 485 kts 19°
2026-05-07 16:47 24.01950 55.54443 34140 ft 491 kts 31°
2026-05-07 16:47 24.04688 55.56743 33215 ft 503 kts 37°
2026-05-07 16:47 24.07380 55.59281 32250 ft 521 kts 39°
2026-05-07 16:47 24.10102 55.61971 31396 ft 532 kts 40°
2026-05-07 16:48 24.12797 55.64688 30479 ft 534 kts 40°
2026-05-07 16:48 24.15528 55.67452 29464 ft 535 kts 40°
2026-05-07 16:48 24.18271 55.70216 28317 ft 537 kts 40°
2026-05-07 16:48 24.21018 55.72969 27533 ft 531 kts 40°
2026-05-07 16:49 24.23727 55.75675 26801 ft 525 kts 40°
2026-05-07 16:49 24.26419 55.78356 26084 ft 518 kts 40°
2026-05-07 16:49 24.29047 55.80972 25343 ft 499 kts 41°
2026-05-07 16:49 24.31580 55.83493 24452 ft 487 kts 41°
2026-05-07 16:50 24.34064 55.85965 23774 ft 480 kts 41°
2026-05-07 16:50 24.36526 55.88415 23116 ft 475 kts 41°
2026-05-07 16:50 24.38928 55.90810 22462 ft 470 kts 41°
2026-05-07 16:50 24.41334 55.93211 21849 ft 465 kts 41°
2026-05-07 16:51 24.43708 55.95579 21230 ft 459 kts 41°
2026-05-07 16:51 24.46061 55.97924 20628 ft 454 kts 41°
2026-05-07 16:51 24.48386 56.00244 20043 ft 449 kts 41°
2026-05-07 16:51 24.50683 56.02537 19551 ft 444 kts 41°
2026-05-07 16:52 24.52952 56.04803 19029 ft 439 kts 41°
2026-05-07 16:52 24.55207 56.07060 18459 ft 437 kts 42°
2026-05-07 16:52 24.57424 56.09279 17905 ft 436 kts 41°
2026-05-07 16:52 24.59851 56.11229 17262 ft 429 kts 30°
2026-05-07 16:53 24.62574 56.12481 16515 ft 424 kts 17°
2026-05-07 16:53 24.65437 56.13288 15713 ft 422 kts 12°
2026-05-07 16:53 24.68294 56.13873 15112 ft 414 kts 10°
2026-05-07 16:53 24.71117 56.14355 14628 ft 406 kts
2026-05-07 16:54 24.73891 56.14801 14176 ft 402 kts
2026-05-07 16:54 24.76656 56.15215 13718 ft 400 kts
2026-05-07 16:54 24.79433 56.15134 13213 ft 400 kts 352°
2026-05-07 16:54 24.82057 56.14291 12708 ft 399 kts 339°
2026-05-07 16:55 24.84594 56.13107 12210 ft 391 kts 337°
2026-05-07 16:55 24.87049 56.11910 11708 ft 382 kts 336°
2026-05-07 16:55 24.89450 56.10735 11251 ft 373 kts 336°
2026-05-07 16:55 24.91791 56.09587 10815 ft 364 kts 335°
2026-05-07 16:56 24.94081 56.08460 10395 ft 356 kts 335°
2026-05-07 16:56 24.96191 56.07105 9972 ft 348 kts 318°
2026-05-07 16:56 24.98161 56.02570 9124 ft 329 kts 273°
2026-05-07 16:57 24.98268 56.00081 8688 ft 323 kts 271°
2026-05-07 16:57 24.98389 55.97662 8268 ft 318 kts 273°
2026-05-07 16:57 24.98557 55.95247 7842 ft 314 kts 274°
2026-05-07 16:57 24.98752 55.92873 7471 ft 309 kts 275°
2026-05-07 16:58 24.98958 55.90539 7108 ft 303 kts 275°
2026-05-07 16:58 24.99168 55.88243 6759 ft 298 kts 275°
2026-05-07 16:58 24.99377 55.85996 6423 ft 293 kts 276°
2026-05-07 16:58 24.99593 55.83776 6099 ft 288 kts 277°
2026-05-07 16:59 25.00108 55.81681 5807 ft 281 kts 296°
2026-05-07 16:59 25.01072 55.79830 5529 ft 275 kts 302°
2026-05-07 16:59 25.02085 55.78096 5231 ft 271 kts 306°
2026-05-07 16:59 25.03162 55.76491 4961 ft 266 kts 304°
2026-05-07 17:00 25.04126 55.74772 4684 ft 262 kts 302°
2026-05-07 17:00 25.05072 55.73073 4384 ft 259 kts 302°
2026-05-07 17:00 25.06013 55.71391 4093 ft 255 kts 302°
2026-05-07 17:00 25.06931 55.69740 3805 ft 252 kts 302°
2026-05-07 17:01 25.07823 55.68092 3532 ft 248 kts 301°
2026-05-07 17:01 25.08402 55.67009 3350 ft 246 kts 301°
2026-05-07 17:01 25.09265 55.65391 3062 ft 244 kts 301°
2026-05-07 17:01 25.10123 55.63793 2780 ft 241 kts 301°
2026-05-07 17:02 25.10983 55.62214 2501 ft 239 kts 302°
2026-05-07 17:02 25.11440 55.61383 2363 ft 238 kts 302°
2026-05-07 17:02 25.12012 55.60353 2162 ft 237 kts 302°
2026-05-07 17:02 25.12865 55.58829 2013 ft 229 kts 302°
2026-05-07 17:03 25.13675 55.57379 1984 ft 214 kts 302°
2026-05-07 17:03 25.14671 55.55587 1989 ft 194 kts 302°
2026-05-07 17:03 25.15126 55.54781 2036 ft 182 kts 304°
2026-05-07 17:03 25.15989 55.53228 2005 ft 174 kts 302°
2026-05-07 17:04 25.16403 55.52475 1992 ft 166 kts 302°
2026-05-07 17:04 25.17181 55.51059 1970 ft 162 kts 302°
2026-05-07 17:04 25.17572 55.50357 1974 ft 162 kts 302°
2026-05-07 17:04 25.18162 55.49299 1960 ft 162 kts 302°
2026-05-07 17:05 25.18752 55.48241 1782 ft 161 kts 302°
2026-05-07 17:05 25.19330 55.47199 1593 ft 157 kts 302°
2026-05-07 17:05 25.19886 55.46191 1376 ft 150 kts 302°
2026-05-07 17:05 25.20578 55.44935 1128 ft 140 kts 302°
2026-05-07 17:06 25.20923 55.44313 1018 ft 140 kts 302°
2026-05-07 17:06 25.21532 55.43218 808 ft 139 kts 302°
2026-05-07 17:06 25.21862 55.42619 702 ft 136 kts 302°
2026-05-07 17:06 25.22353 55.41732 524 ft 135 kts 301°
2026-05-07 17:07 25.22849 55.40856 381 ft 134 kts 305°
2026-05-07 17:07 25.23347 55.39988 246 ft 135 kts 302°
2026-05-07 17:07 25.23826 55.39103 61 ft 131 kts 300°
2026-05-07 17:07 25.24225 55.38330 38 ft 117 kts 301°
2026-05-07 17:08 25.24528 55.37797 35 ft 54 kts 302°
2026-05-07 17:08 25.24750 55.37391 35 ft 42 kts 293°
2026-05-07 17:08 25.24784 55.37219 35 ft 19 kts 273°
2026-05-07 17:08 25.24784 55.37131 33 ft 0 kts 245°
2026-05-07 17:09 25.24779 55.37122 32 ft 5 kts 242°
2026-05-07 17:09 25.24748 55.37059 30 ft 13 kts 241°
2026-05-07 17:09 25.24700 55.37044 29 ft 6 kts 141°
2026-05-07 17:09 25.24672 55.37095 29 ft 10 kts 121°
2026-05-07 17:10 25.24624 55.37185 29 ft 16 kts 117°
2026-05-07 17:10 25.24601 55.37280 29 ft 12 kts 105°
2026-05-07 17:10 25.24563 55.37373 29 ft 16 kts 126°
2026-05-07 17:10 25.24517 55.37451 29 ft 0 kts 122°
2026-05-07 17:11 25.24511 55.37462 29 ft 5 kts 122°
2026-05-07 17:11 25.24488 55.37502 29 ft 8 kts 122°
2026-05-07 17:11 25.24466 55.37542 29 ft 4 kts 120°
2026-05-07 17:11 25.24454 55.37545 29 ft 1 kts 177°
2026-05-07 17:12 25.24451 55.37543 29 ft 1 kts 197°
2026-05-07 17:12 25.24450 55.37541 29 ft 0 kts 213°
2026-05-07 17:12 25.24447 55.37538 29 ft 2 kts 214°
2026-05-07 17:12 25.24422 55.37520 28 ft 7 kts 214°
2026-05-07 17:13 25.24375 55.37486 28 ft 7 kts 211°
2026-05-07 17:13 25.24327 55.37454 28 ft 7 kts 210°
2026-05-07 17:13 25.24316 55.37447 28 ft 0 kts 212°
2026-05-07 17:14 25.24315 55.37447 28 ft 0 kts 212°
2026-05-07 17:14 25.24313 55.37445 28 ft 1 kts 212°
2026-05-07 17:14 25.24305 55.37440 28 ft 0 kts 212°
2026-05-07 17:15 25.24304 55.37439 27 ft 0 kts 212°